Ely, MN

10:26 PM CST on February 21, 2018 (GMT -0600)
Ely Municipal

Weather History for KELO - April, 2013

Change the Weather History Date:

Thursday, April 25, 2013

  Actual Average Record
Temperature  
Mean Temperature 32 °F -  
Max Temperature 42 °F 54 °F 71 °F (1999)
Min Temperature 21 °F 28 °F 21 °F (2002)
Degree Days  
Heating Degree Days 34    
Moisture  
Dew Point 22 °F    
Average Humidity 66    
Maximum Humidity 100    
Minimum Humidity 34    
Precipitation  
Precipitation 0.00 in - - ()
Sea Level Pressure  
Sea Level Pressure 30.01 in    
Wind  
Wind Speed 4 mph (WSW)    
Max Wind Speed 16 mph    
Max Gust Speed 22 mph    
Visibility 10 miles    
Events      
Averages and records for this station are not official NWS values.
T = Trace of Precipitation, MM = Missing Value Source: NWS Daily Summary

Daily Weather History Graph

Daily Weather History Graph

Search for Another Location

Airport or City:

Trip Planner

Search our weather history database for the weather conditions in past years. The results will help you decide how hot, cold, wet, or windy it might be!

Date:

Astronomy

Apr. 25, 2013 Rise Set
Actual Time 5:59 AM CDT 8:11 PM CDT
Civil Twilight 5:25 AM CDT 8:45 PM CDT
Nautical Twilight 4:43 AM CDT 9:28 PM CDT
Astronomical Twilight 3:56 AM CDT 10:15 PM CDT
Moon 8:28 PM CDT (4/25) 5:43 AM CDT (4/25)
Length of Visible Light 15h 20m
Length of Day
14h 12m
Full, 100% of the Moon is Illuminated
Apr 25
Full
Apr 25
Full
May 2
Last Quarter
May 9
New
May 17
First Quarter

Hourly Weather History & Observations

Time (CDT) Temp. Windchill Dew Point Humidity Pressure Visibility Wind Dir Wind Speed Gust Speed Precip Events Conditions
12:13 AM 26.6 °F - 24.8 °F 93% 29.88 in 10.0 mi Calm Calm - N/A   Clear
12:33 AM 26.6 °F - 24.8 °F 93% 29.89 in 10.0 mi Calm Calm - N/A   Clear
12:52 AM 26.6 °F 22.6 °F 24.8 °F 93% 29.89 in 10.0 mi WSW 3.5 mph - N/A   Clear
1:13 AM 24.8 °F - 23.0 °F 93% 29.89 in 10.0 mi Calm Calm - N/A   Clear
1:33 AM 24.8 °F - 21.2 °F 86% 29.90 in 10.0 mi Calm Calm - N/A   Clear
1:52 AM 23.0 °F - 21.2 °F 93% 29.90 in 10.0 mi Calm Calm - N/A   Clear
2:13 AM 23.0 °F - 21.2 °F 93% 29.90 in 10.0 mi Calm Calm - N/A   Clear
2:33 AM 21.2 °F - 21.2 °F 100% 29.90 in 10.0 mi Calm Calm - N/A   Clear
2:53 AM 21.2 °F 14.9 °F 19.4 °F 93% 29.91 in 10.0 mi SW 4.6 mph - N/A   Clear
3:13 AM 21.2 °F 16.4 °F 21.2 °F 100% 29.92 in 10.0 mi SW 3.5 mph - N/A   Scattered Clouds
3:32 AM 24.8 °F 19.1 °F 23.0 °F 93% 29.92 in 10.0 mi WSW 4.6 mph - N/A   Overcast
3:53 AM 24.8 °F 20.5 °F 24.8 °F 100% 29.92 in 10.0 mi SW 3.5 mph - N/A   Overcast
4:13 AM 24.8 °F - 24.8 °F 100% 29.93 in 10.0 mi Calm Calm - N/A   Overcast
4:32 AM 26.6 °F - 24.8 °F 93% 29.93 in 10.0 mi Calm Calm - N/A   Mostly Cloudy
4:53 AM 24.8 °F - 24.8 °F 100% 29.93 in 5.0 mi Calm Calm - N/A   Mostly Cloudy
5:13 AM 24.8 °F 20.5 °F 24.8 °F 100% 29.94 in 10.0 mi SW 3.5 mph - N/A   Mostly Cloudy
5:33 AM 24.8 °F 20.5 °F 24.8 °F 100% 29.95 in 10.0 mi SW 3.5 mph - N/A   Mostly Cloudy
5:53 AM 24.8 °F - 24.8 °F 100% 29.95 in 10.0 mi Calm Calm - N/A   Overcast
6:12 AM 26.6 °F 21.2 °F 24.8 °F 93% 29.96 in 10.0 mi West 4.6 mph - N/A   Overcast
6:33 AM 26.6 °F 22.6 °F 26.6 °F 100% 29.96 in 10.0 mi West 3.5 mph - N/A   Overcast
6:53 AM 26.6 °F 22.6 °F 26.6 °F 100% 29.97 in 10.0 mi SW 3.5 mph - N/A   Overcast
7:12 AM 28.4 °F 22.2 °F 26.6 °F 93% 29.98 in 10.0 mi West 5.8 mph - N/A   Overcast
7:33 AM 28.4 °F 22.2 °F 26.6 °F 93% 29.99 in 10.0 mi West 5.8 mph - N/A   Overcast
7:53 AM 28.4 °F 23.3 °F 26.6 °F 93% 30.00 in 10.0 mi WSW 4.6 mph - N/A   Overcast
8:12 AM 30.2 °F 24.3 °F 26.6 °F 86% 30.01 in 10.0 mi WNW 5.8 mph - N/A   Overcast
8:33 AM 30.2 °F 22.6 °F 26.6 °F 86% 30.02 in 10.0 mi West 8.1 mph - N/A   Overcast
8:53 AM 30.2 °F 24.3 °F 26.6 °F 86% 30.02 in 10.0 mi West 5.8 mph - N/A   Overcast
9:12 AM 30.2 °F 25.4 °F 26.6 °F 86% 30.02 in 10.0 mi West 4.6 mph - N/A   Overcast
9:33 AM 32.0 °F 27.5 °F 28.4 °F 87% 30.03 in 10.0 mi West 4.6 mph - N/A   Overcast
9:53 AM 33.8 °F 29.6 °F 26.6 °F 75% 30.03 in 10.0 mi West 4.6 mph - N/A   Overcast
10:05 AM 33.8 °F 29.6 °F 26.6 °F 75% 30.03 in 10.0 mi West 4.6 mph - N/A   Overcast
11:03 AM - - - N/A% 30.05 in - West 8.1 mph - N/A   Unknown
11:13 AM 35.6 °F 30.7 °F 24.8 °F 65% 30.05 in 10.0 mi West 5.8 mph 16.1 mph N/A   Unknown
11:33 AM 37.4 °F 32.1 °F 24.8 °F 60% 30.05 in 10.0 mi West 6.9 mph - N/A   Mostly Cloudy
11:52 AM 37.4 °F 31.4 °F 24.8 °F 60% 30.05 in 10.0 mi West 8.1 mph - N/A   Overcast
12:13 PM 37.4 °F 29.8 °F 23.0 °F 56% 30.05 in 10.0 mi West 11.5 mph 17.3 mph N/A   Mostly Cloudy
12:33 PM 39.2 °F 34.2 °F 21.2 °F 49% 30.05 in 10.0 mi West 6.9 mph 17.3 mph N/A   Scattered Clouds
12:52 PM 39.2 °F 31.2 °F 21.2 °F 49% 30.05 in 10.0 mi West 13.8 mph 21.9 mph N/A   Scattered Clouds
1:13 PM 39.2 °F 32.0 °F 19.4 °F 45% 30.05 in 10.0 mi WSW 11.5 mph 17.3 mph N/A   Mostly Cloudy
1:32 PM 41.0 °F 35.8 °F 19.4 °F 42% 30.05 in 10.0 mi West 8.1 mph 16.1 mph N/A   Mostly Cloudy
1:53 PM 41.0 °F 36.4 °F 19.4 °F 42% 30.05 in 10.0 mi West 6.9 mph - N/A   Mostly Cloudy
2:13 PM 39.2 °F 32.5 °F 19.4 °F 45% 30.05 in 10.0 mi West 10.4 mph 17.3 mph N/A   Mostly Cloudy
2:32 PM 42.8 °F 37.5 °F 19.4 °F 39% 30.05 in 10.0 mi WSW 9.2 mph 16.1 mph N/A   Scattered Clouds
2:53 PM 42.8 °F 38.6 °F 19.4 °F 39% 30.04 in 10.0 mi SW 6.9 mph - N/A   Scattered Clouds
3:13 PM 39.2 °F 37.0 °F 19.4 °F 45% 30.04 in 10.0 mi WSW 3.5 mph - N/A   Scattered Clouds
3:32 PM 42.8 °F 35.1 °F 17.6 °F 36% 30.04 in 10.0 mi SW 16.1 mph 19.6 mph N/A   Mostly Cloudy
3:53 PM 42.8 °F 38.6 °F 17.6 °F 36% 30.04 in 10.0 mi SW 6.9 mph - N/A   Scattered Clouds
4:13 PM 42.8 °F 37.0 °F 17.6 °F 36% 30.04 in 10.0 mi SW 10.4 mph - N/A   Clear
4:32 PM 42.8 °F 37.5 °F 17.6 °F 36% 30.04 in 10.0 mi SW 9.2 mph - N/A   Scattered Clouds
4:53 PM 42.8 °F 39.3 °F 17.6 °F 36% 30.04 in 10.0 mi WSW 5.8 mph 17.3 mph N/A   Clear
5:13 PM 42.8 °F 38.6 °F 17.6 °F 36% 30.04 in 10.0 mi SW 6.9 mph 17.3 mph N/A   Clear
5:32 PM 42.8 °F 37.5 °F 15.8 °F 34% 30.04 in 10.0 mi SW 9.2 mph 17.3 mph N/A   Scattered Clouds
5:53 PM 42.8 °F 38.0 °F 15.8 °F 34% 30.04 in 10.0 mi SW 8.1 mph - N/A   Clear
6:13 PM 42.8 °F 38.0 °F 17.6 °F 36% 30.04 in 10.0 mi SW 8.1 mph - N/A   Clear
6:32 PM 42.8 °F 38.6 °F 15.8 °F 34% 30.04 in 10.0 mi SW 6.9 mph - N/A   Clear
6:53 PM 42.8 °F 37.0 °F 15.8 °F 34% 30.04 in 10.0 mi SW 10.4 mph - N/A   Clear
7:13 PM 42.8 °F 38.0 °F 17.6 °F 36% 30.04 in 10.0 mi SW 8.1 mph - N/A   Clear
7:33 PM 41.0 °F 37.1 °F 17.6 °F 39% 30.04 in 10.0 mi SW 5.8 mph - N/A   Clear
7:53 PM 39.2 °F 35.9 °F 17.6 °F 42% 30.04 in 10.0 mi SSW 4.6 mph - N/A   Clear
8:13 PM 39.2 °F 35.9 °F 19.4 °F 45% 30.04 in 10.0 mi SSW 4.6 mph - N/A   Clear
8:32 PM 37.4 °F 32.8 °F 19.4 °F 48% 30.05 in 10.0 mi SSW 5.8 mph - N/A   Clear
8:53 PM 37.4 °F 33.8 °F 19.4 °F 48% 30.05 in 10.0 mi South 4.6 mph - N/A   Clear
9:13 PM 37.4 °F 33.8 °F 19.4 °F 48% 30.06 in 10.0 mi South 4.6 mph - N/A   Clear
9:32 PM 37.4 °F 33.8 °F 19.4 °F 48% 30.07 in 10.0 mi SSW 4.6 mph - N/A   Clear
9:53 PM 37.4 °F 33.8 °F 19.4 °F 48% 30.07 in 10.0 mi South 4.6 mph - N/A   Clear
10:13 PM 37.4 °F 33.8 °F 19.4 °F 48% 30.07 in 10.0 mi SSW 4.6 mph - N/A   Clear
10:32 PM 35.6 °F 31.7 °F 19.4 °F 52% 30.07 in 10.0 mi SSW 4.6 mph - N/A   Clear
10:53 PM 35.6 °F 31.7 °F 19.4 °F 52% 30.06 in 10.0 mi South 4.6 mph - N/A   Clear
11:13 PM 35.6 °F 31.7 °F 17.6 °F 48% 30.06 in 10.0 mi South 4.6 mph - N/A   Clear
11:29 PM 35.6 °F 32.8 °F 17.6 °F 48% 30.06 in 10.0 mi South 3.5 mph - N/A   Clear
11:53 PM 35.6 °F 32.8 °F 17.6 °F 48% 30.06 in 10.0 mi South 3.5 mph - N/A   Clear